SCP
0 0 0 0 0 0 0 0 0 0 0 1 1 1 1 1 1 1 1 0 0 0 0 0 0 1 1 1 1 1 1 1 1 1 1 1 1 1
0 0 0 0 0 0 0 0 0 0 0 0 1 1 1 1 1 1 1 1 0 0 0 0 0 0 0 0 1 1 1 1 1 1 1 1 1 1
0 0 0 0 0 0 0 0 0 0 0 0 0 0 1 1 1 1 1 1 1 0 0 0 0 0 0 0 0 0 0 0 0 0 1 1 1 1
0 0 0 0 0 0 0 0 0 0 0 0 0 0 0 1 1 1 1 1 1 1 0 0 0 0 0 0 0 0 0 0 0 0 0 0 1 1
0 0 0 0 0 0 0 0 0 0 0 0 0 0 1 1 1 1 1 1 1 1 0 0 0 0 0 0 0 0 0 0 0 0 0 0 0 0
0 0 0 0 0 0 0 0 0 0 0 0 0 0 0 1 1 1 1 1 1 1 1 1 0 0 0 0 0 0 0 0 0 0 0 0 0 0
0 0 0 0 0 0 0 0 0 0 0 0 0 0 0 0 1 1 1 1 1 1 1 1 1 1 0 0 0 0 0 0 0 0 0 0 0 0
0 0 0 0 0 0 0 0 0 0 0 0 0 0 0 0 0 0 1 1 1 1 1 1 1 1 1 1 0 0 0 0 0 0 0 0 0 0
0 0 0 0 0 0 0 0 0 0 0 0 0 0 0 0 0 0 1 1 1 1 1 1 1 1 1 1 0 0 0 0 0 0 0 0 0 0
0 0 0 0 0 0 0 0 0 0 0 0 0 0 0 0 0 0 1 1 1 1 1 1 1 1 1 0 0 0 0 0 0 0 0 0 0 0
0 0 0 0 0 0 0 0 0 0 0 0 0 0 0 0 0 0 1 1 1 1 1 1 1 1 1 1 0 0 0 0 0 0 0 0 0 0
0 0 0 0 0 0 0 0 0 0 0 0 0 0 0 0 0 0 0 1 1 1 1 1 1 1 1 1 0 0 0 0 0 0 0 0 0 0
0 0 0 0 0 0 0 0 0 0 0 0 0 0 0 0 0 0 0 0 0 0 1 1 1 1 1 0 0 0 0 0 0 0 0 0 0 0
1 1 0 0 0 0 0 0 0 0 0 0 0 0 0 0 0 0 0 0 0 0 0 0 1 1 1 0 0 0 0 0 0 0 0 0 0 0
1 1 0 0 0 0 0 0 0 0 0 0 0 0 0 0 0 0 0 0 0 0 0 0 0 1 1 0 0 0 0 0 0 0 0 0 0 0
1 0 0 0 0 0 0 0 0 0 0 0 0 0 0 0 0 0 0 0 0 0 0 0 0 0 0 0 0 0 0 0 0 0 0 0 0 0
0 0 0 0 0 0 0 0 0 0 0 0 0 0 0 0 0 0 0 0 0 0 0 0 0 0 0 0 0 0 0 0 0 0 0 0 0 0
0 0 1 1 1 0 0 0 0 0 0 0 0 0 0 0 0 0 0 0 0 0 0 0 0 0 0 0 0 0 0 0 0 0 0 0 0 0
0 0 1 1 1 1 1 0 1 1 0 0 0 0 0 0 0 0 0 0 0 0 0 0 0 0 0 0 0 0 0 0 0 0 0 0 0 0
0 0 1 1 1 1 1 1 1 1 1 1 0 0 0 0 0 0 0 0 0 0 0 0 0 0 0 0 0 0 0 0 0 0 0 0 0 0
1 1 1 1 1 1 1 1 1 1 1 1 1 0 0 0 0 0 0 0 0 0 0 0 0 0 0 0 0 0 0 0 0 0 0 0 0 0
1 1 1 1 1 1 1 1 1 1 1 1 1 1 0 0 0 0 0 0 0 0 0 0 0 0 0 0 0 0 0 0 0 0 0 0 0 0
2 2 2 2 2 2 1 1 1 1 1 1 1 1 0 0 0 0 0 0 0 0 0 0 0 0 0 0 0 0 0 0 0 0 0 0 0 0
Wind_Speed
2 2 2 1 2 2 2 2 2 2 2 2 1 1 1 1 0 1 2 5 4 3 3 3 4 4 4 4 5 5 5 6 7 7 8 9 10 10
2 3 2 2 1 1 2 2 2 2 2 1 1 1 1 1 1 1 2 5 4 3 3 3 3 4 4 4 5 5 5 5 6 7 7 8 9 9
2 2 2 2 2 2 2 2 2 3 2 2 1 2 2 1 1 1 1 3 4 4 3 3 3 4 4 4 4 5 5 4 5 6 6 7 8 9
3 3 3 2 3 2 2 2 2 3 3 2 2 2 2 1 1 1 1 1 1 5 4 3 3 3 3 4 4 4 5 5 5 5 6 7 7 8
4 4 3 3 3 2 3 3 2 2 2 3 2 1 2 1 2 2 1 1 1 4 5 5 4 3 3 3 4 4 4 4 4 4 5 5 5 6
5 5 5 4 4 4 3 3 3 3 3 3 2 2 2 2 2 2 1 1 1 1 1 2 4 5 4 4 4 3 3 4 4 4 4 4 4 5
6 6 5 4 3 3 3 3 3 3 3 3 3 3 3 2 2 2 2 1 1 1 1 2 3 3 4 6 5 3 2 3 3 3 4 4 4 4
8 7 6 8 7 7 6 5 4 4 3 3 3 4 3 3 2 2 2 2 2 1 1 1 1 1 1 2 4 3 2 2 2 2 2 3 3 4
9 8 6 6 7 8 9 10 8 6 6 5 4 4 3 3 4 4 3 3 2 1 1 2 2 2 2 4 5 4 3 3 2 1 1 2 2 3
11 10 9 9 8 8 8 8 8 7 7 7 5 3 2 3 3 3 2 2 2 1 2 2 2 1 2 4 7 5 4 3 2 2 1 1 2 4
12 11 11 11 8 8 9 9 8 7 5 3 2 1 2 1 2 3 4 4 3 3 2 2 1 1 2 3 6 6 4 3 2 2 2 2 3 5
10 11 11 12 9 12 12 10 10 8 7 7 6 6 6 5 5 6 4 4 3 2 2 2 2 1 2 2 2 3 3 4 3 2 1 2 2 4
10 10 9 13 12 13 13 11 8 7 7 7 6 6 5 5 5 5 4 3 3 2 2 2 2 2 2 2 2 1 0 0 1 2 3 2 1 3
11 10 8 13 15 14 12 9 7 7 7 6 6 6 6 5 4 4 4 3 1 1 2 2 2 2 2 2 2 2 1 0 1 2 1 2 2 2
11 9 7 11 13 12 13 11 11 9 8 8 7 6 6 5 5 4 4 4 3 2 1 1 2 2 2 2 2 1 1 0 1 2 2 2 2 1
12 9 9 10 10 9 10 11 10 9 9 8 7 6 6 6 6 5 5 5 4 4 3 1 1 2 2 2 2 2 2 1 1 2 2 2 2 2
10 9 9 10 10 10 10 10 10 9 9 8 8 7 7 7 6 5 5 5 5 5 4 3 2 2 0 1 2 2 2 2 1 2 2 3 2 2
10 10 11 11 12 12 11 11 11 10 10 9 9 8 8 8 7 6 6 6 5 4 4 4 4 4 3 2 1 3 2 2 1 2 3 4 3 2
12 12 12 12 12 12 12 11 11 11 10 10 10 9 9 8 8 8 7 6 5 5 4 4 4 4 5 4 4 1 2 1 2 3 3 3 4 3
13 13 12 12 12 12 12 11 11 10 10 10 10 10 9 9 9 9 8 8 7 6 5 4 4 3 3 2 1 3 1 2 3 3 3 3 4 3
12 12 12 12 11 11 11 11 11 11 12 11 10 11 10 10 9 9 8 9 7 7 7 5 3 2 1 2 3 3 3 3 1 4 5 5 5 4
11 12 12 11 11 11 11 11 11 11 12 11 11 10 10 10 10 11 9 9 8 7 6 5 5 5 4 4 4 3 2 3 4 6 5 6 5 5
11 11 11 11 11 10 11 13 14 12 12 12 11 11 11 10 9 9 9 9 8 7 7 6 5 5 4 4 3 3 3 3 3 3 3 6 8 9
Wind_Direction
318 311 313 334 310 309 286 275 271 233 190 166 176 123 124 100 122 205 153 125 145 154 168 176 177 179 188 204 215 220 216 209 208 209 210 216 224 229
301 304 305 294 313 296 284 275 272 272 236 177 180 159 147 186 163 249 128 144 151 155 167 181 187 191 192 199 207 213 209 206 207 212 218 221 224 228
269 276 274 291 283 278 275 271 263 259 237 197 169 175 191 197 178 222 192 198 153 151 169 177 185 193 195 198 205 205 202 206 212 217 223 226 228 229
276 272 265 239 259 272 267 257 250 253 240 210 183 182 202 196 209 228 222 210 178 137 164 173 179 189 194 202 200 200 201 206 213 219 225 231 236 238
262 262 261 249 245 239 250 255 251 245 245 231 201 177 209 195 201 207 206 211 228 146 163 173 169 174 186 183 186 197 204 206 212 220 227 235 241 245
247 247 250 246 248 244 238 241 244 238 229 228 208 195 201 201 220 211 195 178 192 154 136 156 158 175 179 174 173 184 200 206 214 220 222 226 238 249
244 239 234 244 281 277 270 249 231 231 218 221 215 211 204 205 213 211 215 214 183 194 199 181 178 186 173 166 161 158 181 190 202 213 220 226 233 243
245 241 225 213 216 222 245 267 278 258 240 224 221 219 211 202 201 224 218 220 205 167 235 205 195 191 170 126 98 119 138 152 169 190 215 229 236 240
246 240 232 223 219 223 209 215 226 244 266 266 240 229 217 201 208 218 226 244 244 157 242 212 183 174 133 99 104 107 109 112 115 126 222 246 247 249
241 241 236 230 220 226 224 219 220 212 220 235 241 233 226 207 225 241 235 233 227 188 227 224 190 173 141 126 117 111 108 99 87 77 38 290 271 263
237 237 238 236 201 203 228 226 221 210 193 210 320 34 65 54 257 220 207 217 214 182 197 233 199 202 186 155 132 133 123 113 94 57 25 355 309 273
234 233 226 236 203 192 221 225 223 216 202 188 195 197 201 187 215 235 227 229 223 190 166 221 200 210 203 166 156 162 156 143 143 132 81 27 341 290
235 229 222 200 209 202 220 230 223 219 210 206 200 198 201 200 197 209 219 238 233 208 154 203 219 227 230 189 187 190 213 217 187 159 142 113 18 308
242 236 222 187 199 204 213 218 194 202 215 208 206 204 201 198 195 188 183 191 221 184 151 208 228 237 240 231 204 178 205 341 328 328 340 149 179 177
245 244 225 184 193 205 210 198 192 206 211 211 210 206 201 193 180 169 168 162 152 136 158 211 234 239 252 253 247 233 245 295 331 321 323 327 321 304
238 227 208 194 205 214 192 195 208 212 211 211 207 197 186 181 182 179 178 177 177 162 146 159 222 232 237 244 254 257 258 260 304 323 325 322 325 325
226 222 213 204 204 207 207 202 202 203 205 209 201 193 187 184 183 184 189 191 199 187 170 165 164 151 148 268 233 235 235 239 274 313 308 300 301 310
221 222 217 212 208 205 205 203 202 203 201 200 199 194 190 187 182 180 187 195 197 191 180 172 178 181 185 151 354 250 238 252 277 287 282 285 287 304
222 224 219 216 211 207 205 204 202 201 198 196 197 194 191 187 183 182 186 190 190 186 180 182 200 215 223 209 149 327 283 274 282 280 286 292 294 308
225 224 220 216 212 209 205 202 200 196 196 196 194 192 190 187 186 186 187 188 185 182 181 186 199 221 246 265 165 151 221 280 281 288 293 294 287 267
225 224 222 216 212 208 204 200 196 193 193 192 192 190 189 188 188 188 184 176 186 186 189 182 150 166 203 201 203 191 161 153 304 297 301 289 283 275
234 227 221 216 210 205 200 197 195 192 191 192 189 187 187 187 186 185 183 180 187 189 183 159 156 182 203 218 225 215 203 189 182 198 243 277 295 301
240 233 224 214 209 203 197 196 195 192 190 189 187 186 185 185 183 182 182 182 181 178 173 169 173 186 199 210 224 231 236 248 259 249 229 199 219 249